Location: Allos
(44.2333°N, 6.6333°E)
Time: 20:00:51
(UTC+00:00)

Cosmos 2228 Rocket - Pass Details

Date: 01 May 2021
Orbit: 617 x 652 km, 82.5° (Epoch: 05 May)

Event Time Altitude Azimuth Distance (km) Brightness Sun altitude
Exits shadow 00:14:24 14° 303° (WNW) 1,754 5.6 -29.8°
Drops below altitude 10° 00:16:05 10° 326° (NW) 1,996 6.1 -29.8°
Sets 00:19:21 0° 351° (N) 2,913 7.5 -29.6°
